Location: Unspecified
(41.1637°N, 24.2901°E)
Time: 03:54:09
(UTC+02:00)

ISS - Pass Details

Date: 24 March 2023
Orbit: 413 x 423 km, 51.6° (Epoch: 01 April)

Event Time Altitude Azimuth Distance (km) Brightness Sun altitude
Rises 20:16:54 0° 310° (NW) 2,354 1.3 -29.0°
Reaches altitude 10° 20:19:25 10° 329° (NNW) 1,489 -0.2 -29.4°
Enters shadow 20:19:53 12° 335° (NNW) 1,359 -0.5 -29.5°
